Tracking 30994 objects as of 8-Jul-2025
HD Live streaming from Space Station
objects crossing your sky now

DELTA 1 DEB

Track DELTA 1 DEB now!
10-day predictions


NORAD ID: 7022
Int'l Code: 1973-086N
Perigee: 1,351.3 km
Apogee: 1,639.0 km
Inclination: 102.4 °
Period: 115.7 minutes
Semi major axis: 7866 km
RCS: 0.21 m2 (medium)
Launch date: November 6, 1973
Source: United States (US)
Launch site: AIR FORCE WESTERN TEST RANGE (AFWTR)

Note: This is SATELLITE DEBRIS
Your satellite tracking list
Your tracking list is empty




NASA's NSSDC Master Catalog

Two Line Element Set (TLE):
1 07022U 73086N   25188.72652512 -.00000067  00000-0 -13762-3 0  9996
2 07022 102.3601 256.8393 0182836 157.8287 324.2237 12.44402715345823
Source of the keplerian elements: AFSPC